Location: Devore Heights
(34.2372°N, 117.4156°W)
Time: 05:00:18
(UTC+00:00)

S-56A Canister/Altair - Pass Details

Date: 18 September 2024
Orbit: 636 x 2487 km, 38.9° (Epoch: 05 October)

Event Time Altitude Azimuth Distance (km) Brightness Sun altitude
Rises 00:05:54 0° 223° (SW) 2,913 11.4 21.1°
Reaches altitude 10° 00:08:11 10° 214° (SW) 2,033 10.5 20.6°
Maximum altitude 00:12:23 38° 146° (SE) 1,073 8.3 19.8°
Drops below altitude 10° 00:17:31 10° 78° (ENE) 2,498 9.6 18.7°
Sets 00:20:37 0° 71° (ENE) 3,685 10.4 18.1°
